Time,TemperatureF,DewpointF,PressureIn,WindDirection,WindDirectionDegrees,WindSpeedMPH,WindSpeedGustMPH,Humidity,HourlyPrecipIn,Conditions,Clouds,dailyrainin,SoftwareType,DateUTC
2013-05-08 00:02:00,49.0,48.0,30.13,North,350,1.0,3.0,97,0.00,,,0.00,,2013-05-08 04:02:00,
2013-05-08 00:13:00,49.0,48.0,30.13,North,350,1.0,3.0,97,0.00,,,0.00,,2013-05-08 04:13:00,
2013-05-08 00:23:00,49.0,48.0,30.14,NW,323,3.0,4.0,98,0.00,,,0.00,,2013-05-08 04:23:00,
2013-05-08 00:33:00,49.0,48.0,30.14,NW,316,1.0,3.0,97,0.00,,,0.00,,2013-05-08 04:33:00,
2013-05-08 00:43:00,49.0,48.0,30.14,NW,316,1.0,3.0,97,0.00,,,0.00,,2013-05-08 04:43:00,
2013-05-08 00:53:00,49.0,48.0,30.15,North,1,0.0,2.0,98,0.00,,,0.00,,2013-05-08 04:53:00,
2013-05-08 01:02:00,49.0,48.0,30.15,NNE,23,1.0,2.0,97,0.00,,,0.00,,2013-05-08 05:02:00,
2013-05-08 01:12:00,49.0,48.0,30.15,NNE,23,1.0,2.0,97,0.00,,,0.00,,2013-05-08 05:12:00,
2013-05-08 01:22:00,49.0,48.0,30.14,WNW,293,0.0,1.0,98,0.00,,,0.00,,2013-05-08 05:22:00,
2013-05-08 01:32:00,48.0,47.0,30.14,NNE,25,0.0,0.0,97,0.00,,,0.00,,2013-05-08 05:32:00,
2013-05-08 01:42:00,48.0,47.0,30.14,NNE,25,0.0,0.0,97,0.00,,,0.00,,2013-05-08 05:42:00,
2013-05-08 01:52:00,48.0,47.0,30.14,NNW,336,0.0,2.0,98,0.00,,,0.00,,2013-05-08 05:52:00,
2013-05-08 02:02:00,48.0,47.0,30.14,NNW,336,0.0,1.0,98,0.00,,,0.00,,2013-05-08 06:02:00,
2013-05-08 02:12:00,48.0,47.0,30.14,NNW,336,0.0,1.0,98,0.00,,,0.00,,2013-05-08 06:12:00,
2013-05-08 02:22:00,48.0,47.0,30.14,NW,325,0.0,2.0,98,0.00,,,0.00,,2013-05-08 06:22:00,
2013-05-08 02:32:00,49.0,48.0,30.14,NNW,334,1.0,4.0,98,0.00,,,0.00,,2013-05-08 06:32:00,
2013-05-08 02:42:00,49.0,48.0,30.14,NNW,334,1.0,4.0,98,0.00,,,0.00,,2013-05-08 06:42:00,
2013-05-08 02:52:00,49.0,48.0,30.14,NNW,334,1.0,2.0,98,0.00,,,0.00,,2013-05-08 06:52:00,
2013-05-08 03:02:00,49.0,48.0,30.14,NNE,23,2.0,4.0,98,0.00,,,0.00,,2013-05-08 07:02:00,
2013-05-08 03:11:00,49.0,48.0,30.14,NNE,23,2.0,4.0,98,0.00,,,0.00,,2013-05-08 07:11:00,
2013-05-08 03:22:00,50.0,49.0,30.14,North,352,0.0,3.0,98,0.00,,,0.00,,2013-05-08 07:22:00,
2013-05-08 03:32:00,48.0,47.0,30.14,NE,44,0.0,2.0,97,0.00,,,0.00,,2013-05-08 07:32:00,
2013-05-08 03:42:00,48.0,47.0,30.14,NE,44,0.0,2.0,97,0.00,,,0.00,,2013-05-08 07:42:00,
2013-05-08 03:52:00,48.0,47.0,30.14,NE,44,1.0,2.0,98,0.00,,,0.00,,2013-05-08 07:52:00,
2013-05-08 04:02:00,49.0,48.0,30.15,WSW,238,1.0,2.0,98,0.00,,,0.00,,2013-05-08 08:02:00,
2013-05-08 04:12:00,49.0,48.0,30.15,WSW,238,1.0,2.0,98,0.00,,,0.00,,2013-05-08 08:12:00,
2013-05-08 04:22:00,50.0,49.0,30.15,West,281,0.0,1.0,98,0.00,,,0.00,,2013-05-08 08:22:00,
2013-05-08 04:32:00,50.0,49.0,30.15,WNW,295,0.0,1.0,98,0.00,,,0.00,,2013-05-08 08:32:00,
2013-05-08 04:42:00,50.0,49.0,30.15,WNW,295,0.0,1.0,98,0.00,,,0.00,,2013-05-08 08:42:00,
2013-05-08 04:52:00,48.0,47.0,30.15,NNE,25,1.0,2.0,97,0.00,,,0.00,,2013-05-08 08:52:00,
2013-05-08 05:02:00,49.0,48.0,30.15,WSW,246,0.0,1.0,98,0.00,,,0.00,,2013-05-08 09:02:00,
2013-05-08 05:11:00,49.0,48.0,30.15,WSW,246,0.0,1.0,98,0.00,,,0.00,,2013-05-08 09:11:00,
2013-05-08 05:21:00,49.0,48.0,30.15,WSW,246,0.0,0.0,98,0.00,,,0.00,,2013-05-08 09:21:00,
2013-05-08 05:32:00,49.0,48.0,30.16,WSW,250,0.0,1.0,98,0.00,,,0.00,,2013-05-08 09:32:00,
2013-05-08 05:42:00,49.0,48.0,30.16,WSW,250,0.0,1.0,98,0.00,,,0.00,,2013-05-08 09:42:00,
2013-05-08 05:53:00,49.0,48.0,30.16,WSW,251,0.0,0.0,98,0.00,,,0.00,,2013-05-08 09:53:00,
2013-05-08 06:02:00,49.0,48.0,30.16,SSE,153,0.0,2.0,98,0.00,,,0.00,,2013-05-08 10:02:00,
2013-05-08 06:12:00,49.0,48.0,30.16,SSE,153,0.0,2.0,98,0.00,,,0.00,,2013-05-08 10:12:00,
2013-05-08 06:23:00,49.0,48.0,30.16,SW,221,0.0,4.0,98,0.00,,,0.00,,2013-05-08 10:23:00,
2013-05-08 06:33:00,50.0,49.0,30.16,WSW,245,0.0,1.0,98,0.00,,,0.00,,2013-05-08 10:33:00,
2013-05-08 06:42:00,50.0,49.0,30.16,WSW,245,0.0,1.0,98,0.00,,,0.00,,2013-05-08 10:42:00,
2013-05-08 06:53:00,51.0,50.0,30.17,WSW,246,0.0,1.0,97,0.00,,,0.00,,2013-05-08 10:53:00,
2013-05-08 07:02:00,50.0,49.0,30.18,NNE,22,5.0,6.0,96,0.00,,,0.00,,2013-05-08 11:02:00,
2013-05-08 07:11:00,50.0,49.0,30.18,NNE,22,5.0,6.0,96,0.00,,,0.00,,2013-05-08 11:11:00,
2013-05-08 07:22:00,50.0,49.0,30.18,NNE,22,5.0,6.0,96,0.00,,,0.00,,2013-05-08 11:22:00,
2013-05-08 07:32:00,53.0,52.0,30.19,South,188,0.0,10.0,97,0.00,,,0.00,,2013-05-08 11:32:00,
2013-05-08 07:42:00,53.0,52.0,30.19,South,188,0.0,10.0,97,0.00,,,0.00,,2013-05-08 11:42:00,
2013-05-08 07:52:00,53.0,52.0,30.19,ESE,116,1.0,2.0,96,0.00,,,0.00,,2013-05-08 11:52:00,
2013-05-08 08:02:00,54.0,53.0,30.19,SSW,195,0.0,1.0,97,0.00,,,0.00,,2013-05-08 12:02:00,
2013-05-08 08:11:00,54.0,53.0,30.19,SSW,195,0.0,1.0,97,0.00,,,0.00,,2013-05-08 12:11:00,
2013-05-08 08:21:00,54.0,52.0,30.19,North,360,5.0,10.0,94,0.00,,,0.00,,2013-05-08 12:21:00,
2013-05-08 08:32:00,54.0,53.0,30.20,NNW,331,1.0,10.0,96,0.00,,,0.00,,2013-05-08 12:32:00,
2013-05-08 08:42:00,54.0,53.0,30.20,NNW,331,1.0,10.0,96,0.00,,,0.00,,2013-05-08 12:42:00,
2013-05-08 08:52:00,54.0,53.0,30.20,NNW,331,1.0,10.0,96,0.00,,,0.00,,2013-05-08 12:52:00,
2013-05-08 09:01:00,56.0,54.0,30.21,North,4,5.0,10.0,92,0.00,,,0.00,,2013-05-08 13:01:00,
2013-05-08 09:12:00,56.0,54.0,30.21,North,4,5.0,10.0,92,0.00,,,0.00,,2013-05-08 13:12:00,
2013-05-08 09:21:00,57.0,54.0,30.22,NE,34,6.0,9.0,91,0.00,,,0.00,,2013-05-08 13:21:00,
2013-05-08 09:32:00,57.0,54.0,30.22,NE,41,9.0,14.0,90,0.00,,,0.00,,2013-05-08 13:32:00,
2013-05-08 09:42:00,57.0,54.0,30.22,NE,41,9.0,14.0,90,0.00,,,0.00,,2013-05-08 13:42:00,
2013-05-08 09:52:00,56.0,54.0,30.22,North,359,5.0,11.0,92,0.00,,,0.00,,2013-05-08 13:52:00,
2013-05-08 10:02:00,57.0,54.0,30.22,NNW,338,4.0,12.0,90,0.00,,,0.00,,2013-05-08 14:02:00,
2013-05-08 10:11:00,57.0,54.0,30.22,NNW,338,4.0,12.0,90,0.00,,,0.00,,2013-05-08 14:11:00,
2013-05-08 10:22:00,57.0,54.0,30.22,NNW,345,3.0,9.0,89,0.00,,,0.00,,2013-05-08 14:22:00,
2013-05-08 10:32:00,57.0,55.0,30.22,North,349,6.0,14.0,92,0.00,,,0.00,,2013-05-08 14:32:00,
2013-05-08 10:42:00,57.0,55.0,30.22,North,349,6.0,14.0,92,0.00,,,0.00,,2013-05-08 14:42:00,
2013-05-08 10:52:00,57.0,55.0,30.22,North,349,6.0,14.0,92,0.00,,,0.00,,2013-05-08 14:52:00,
2013-05-08 11:02:00,56.0,53.0,30.22,NW,323,5.0,8.0,91,0.00,,,0.00,,2013-05-08 15:02:00,
2013-05-08 11:11:00,56.0,53.0,30.22,NW,323,5.0,8.0,91,0.00,,,0.00,,2013-05-08 15:11:00,
2013-05-08 11:22:00,55.0,52.0,30.22,NNW,335,7.0,10.0,90,0.00,,,0.00,,2013-05-08 15:22:00,
2013-05-08 11:33:00,54.0,52.0,30.22,NNW,343,5.0,10.0,94,0.00,,,0.00,,2013-05-08 15:33:00,
2013-05-08 11:42:00,54.0,52.0,30.22,NNW,343,5.0,10.0,94,0.00,,,0.00,,2013-05-08 15:42:00,
2013-05-08 11:53:00,55.0,53.0,30.22,North,354,6.0,10.0,94,0.00,,,0.00,,2013-05-08 15:53:00,
2013-05-08 12:03:00,55.0,53.0,30.22,North,354,6.0,10.0,94,0.00,,,0.00,,2013-05-08 16:03:00,
2013-05-08 12:12:00,55.0,53.0,30.22,North,354,6.0,10.0,94,0.00,,,0.00,,2013-05-08 16:12:00,
2013-05-08 12:23:00,54.0,52.0,30.22,West,281,4.0,11.0,93,0.00,,,0.00,,2013-05-08 16:23:00,
2013-05-08 12:33:00,56.0,54.0,30.22,West,264,2.0,14.0,94,0.00,,,0.00,,2013-05-08 16:33:00,
2013-05-08 12:42:00,56.0,54.0,30.22,West,264,2.0,14.0,94,0.00,,,0.00,,2013-05-08 16:42:00,
2013-05-08 12:52:00,53.0,51.0,30.22,NW,323,8.0,21.0,94,0.00,,,0.00,,2013-05-08 16:52:00,
2013-05-08 13:02:00,53.0,52.0,30.22,NW,311,5.0,8.0,95,0.00,,,0.00,,2013-05-08 17:02:00,
2013-05-08 13:12:00,53.0,52.0,30.22,NW,311,5.0,8.0,95,0.00,,,0.00,,2013-05-08 17:12:00,
2013-05-08 13:22:00,54.0,52.0,30.22,NNW,330,6.0,9.0,94,0.00,,,0.00,,2013-05-08 17:22:00,
2013-05-08 13:32:00,54.0,52.0,30.22,NNW,330,6.0,9.0,94,0.00,,,0.00,,2013-05-08 17:32:00,
2013-05-08 13:41:00,54.0,52.0,30.22,NNW,330,6.0,9.0,94,0.00,,,0.00,,2013-05-08 17:41:00,
2013-05-08 13:52:00,56.0,54.0,30.22,WNW,294,3.0,11.0,92,0.00,,,0.00,,2013-05-08 17:52:00,
2013-05-08 14:02:00,57.0,54.0,30.22,WNW,291,2.0,7.0,91,0.00,,,0.00,,2013-05-08 18:02:00,
2013-05-08 14:12:00,57.0,54.0,30.22,WNW,291,2.0,7.0,91,0.00,,,0.00,,2013-05-08 18:12:00,
2013-05-08 14:21:00,56.0,53.0,30.22,North,354,7.0,18.0,91,0.00,,,0.00,,2013-05-08 18:21:00,
2013-05-08 14:32:00,56.0,53.0,30.22,North,354,7.0,18.0,91,0.00,,,0.00,,2013-05-08 18:32:00,
2013-05-08 14:42:00,56.0,53.0,30.22,North,354,7.0,18.0,91,0.00,,,0.00,,2013-05-08 18:42:00,
2013-05-08 14:52:00,57.0,54.0,30.20,WNW,283,4.0,10.0,89,0.00,,,0.00,,2013-05-08 18:52:00,
2013-05-08 15:01:00,59.0,56.0,30.20,NW,325,3.0,17.0,89,0.00,,,0.00,,2013-05-08 19:01:00,
2013-05-08 15:11:00,59.0,56.0,30.20,NW,325,3.0,17.0,89,0.00,,,0.00,,2013-05-08 19:11:00,
2013-05-08 15:22:00,60.0,57.0,30.19,NNE,33,12.0,19.0,89,0.00,,,0.00,,2013-05-08 19:22:00,
2013-05-08 15:32:00,60.0,57.0,30.19,NNE,33,12.0,19.0,89,0.00,,,0.00,,2013-05-08 19:32:00,
2013-05-08 15:42:00,60.0,57.0,30.19,NNE,33,12.0,19.0,89,0.00,,,0.00,,2013-05-08 19:42:00,
2013-05-08 15:52:00,59.0,55.0,30.18,NW,316,5.0,9.0,87,0.00,,,0.00,,2013-05-08 19:52:00,
2013-05-08 16:02:00,58.0,54.0,30.18,WNW,289,3.0,8.0,88,0.00,,,0.00,,2013-05-08 20:02:00,
2013-05-08 16:12:00,58.0,54.0,30.18,WNW,289,3.0,8.0,88,0.00,,,0.00,,2013-05-08 20:12:00,
2013-05-08 16:22:00,61.0,57.0,30.17,SE,138,3.0,12.0,88,0.00,,,0.00,,2013-05-08 20:22:00,
2013-05-08 16:32:00,58.0,55.0,30.17,NNW,342,5.0,16.0,89,0.00,,,0.00,,2013-05-08 20:32:00,
2013-05-08 16:42:00,59.0,56.0,30.17,NNE,15,6.0,9.0,89,0.00,,,0.00,,2013-05-08 20:42:00,
2013-05-08 16:52:00,59.0,56.0,30.17,NNE,15,6.0,9.0,89,0.00,,,0.00,,2013-05-08 20:52:00,
2013-05-08 17:01:00,59.0,56.0,30.17,WNW,296,5.0,10.0,89,0.00,,,0.00,,2013-05-08 21:01:00,
2013-05-08 17:12:00,59.0,56.0,30.17,WNW,296,5.0,10.0,89,0.00,,,0.00,,2013-05-08 21:12:00,
2013-05-08 17:21:00,59.0,56.0,30.18,WSW,252,7.0,11.0,90,0.00,,,0.00,,2013-05-08 21:21:00,
2013-05-08 17:33:00,56.0,54.0,30.18,NNW,340,11.0,21.0,92,0.00,,,0.00,,2013-05-08 21:33:00,
2013-05-08 17:43:00,56.0,54.0,30.17,NNE,15,4.0,8.0,92,0.00,,,0.00,,2013-05-08 21:43:00,
2013-05-08 17:52:00,56.0,54.0,30.17,NNE,15,4.0,8.0,92,0.00,,,0.00,,2013-05-08 21:52:00,
2013-05-08 18:03:00,56.0,54.0,30.17,NNE,15,4.0,8.0,92,0.00,,,0.00,,2013-05-08 22:03:00,
2013-05-08 18:12:00,56.0,54.0,30.17,NNE,15,4.0,8.0,92,0.00,,,0.00,,2013-05-08 22:12:00,
2013-05-08 18:22:00,56.0,54.0,30.17,WNW,300,4.0,8.0,92,0.00,,,0.00,,2013-05-08 22:22:00,
2013-05-08 22:02:00,56.0,54.0,30.14,ENE,77,0.0,2.0,93,0.00,,,0.00,,2013-05-09 02:02:00,
2013-05-08 22:12:00,56.0,54.0,30.14,ENE,77,0.0,2.0,93,0.00,,,0.00,,2013-05-09 02:12:00,
2013-05-08 23:53:00,54.0,53.0,30.11,East,98,4.0,6.0,96,0.00,,,0.00,,2013-05-09 03:53:00,